Location: Cruquius
(52.3348°N, 4.6319°E)
Time: 18:32:50
(UTC+00:00)

IGS 5A - Pass Details

Date: 12 May 2021
Orbit: 583 x 588 km, 97.6° (Epoch: 06 May)

Event Time Altitude Azimuth Distance (km) Brightness Sun altitude
Exits shadow 20:31:12 - 178° (S) 2,456 6.2 -8.6°
Reaches altitude 10° 20:32:33 10° 181° (S) 1,902 5.7 -8.7°
Maximum altitude 20:36:36 55° 260° (W) 709 4.1 -9.1°
Drops below altitude 10° 20:40:42 10° 339° (NNW) 1,920 7.4 -9.5°
Sets 20:42:55 0° 343° (NNW) 2,826 8.3 -9.8°
